Content
SEND FEEDBACK

Daily
Averages
Monthly
Summary
United States of America

VIENNA, MISSOURI


Home > North America > United States > Missouri
Elevation: 770 feet     Latitude: 38 12N     Longitude: 091 58W

WEATHER
 
SELECT A DAY
Number of Records: 206,784;   Date Range: 1/1/95 - 12/24/14
 
SHARE

PRINT THIS DATA

[ ← Previous Day ]
WEATHER ALMANAC - JANUARY 7, 2013
[ Next Day → ]
[ °C ]   °F
Weather ElementAverageHighLow
Temperature34.3 °F48 °F (1:53 pm)21.9 °F (4:53 am)
Dewpoint21.9 °F26.6 °F (12:53 pm)16 °F (3:53 am)
Humidity61.8 %78 % (1:53 am)41 % (2:53 pm)
Barometer30.26 in30.38 in (1:53 am)30.12 in (11:53 pm)
Wind Speed10.2 mph16.1 mph (8:53 am)
Weather ElementAverage
Visibility10 mi
Wind DirectionSSE (173.9 °)

Weather ElementTotal
Precipitation---
Heating Degree Days30.1 (Base 65)
Averaged from 23 records on January 7, 2013
WEATHER CONDITIONS BREAKOUT
WIND DIRECTION BREAKOUT
WEATHER BY HOUR - JANUARY 7, 2013
[ °C ]   °F
Local TimeTemperatureDewpointHumidityBarometerVisibilityWind DirectionWind SpeedGust SpeedPrecipitationEventsConditions
1:53 AM23.0 °F17.1 °F78 %30.38 in10.0 miSouth (180°)6.9 mphClear
2:53 AM24.1 °F17.1 °F75 %30.37 in10.0 miSSE (160°)6.9 mphClear
3:53 AM23.0 °F16.0 °F74 %30.36 in10.0 miSouth (170°)8.1 mphClear
4:53 AM21.9 °F16.0 °F78 %30.35 in10.0 miSSE (150°)9.2 mphClear
5:53 AM21.9 °F16.0 °F78 %30.34 in10.0 miSSE (160°)6.9 mphClear
6:53 AM23.0 °F17.1 °F78 %30.35 in10.0 miSouth (170°)9.2 mphClear
7:53 AM27.0 °F19.0 °F72 %30.35 in10.0 miSSE (150°)13.8 mphClear
8:53 AM30.0 °F21.9 °F72 %30.35 in10.0 miSouth (180°)16.1 mphClear
9:53 AM34.0 °F24.1 °F67 %30.35 in10.0 miSouth (180°)12.7 mphClear
10:53 AM39.0 °F24.1 °F55 %30.34 in10.0 miSouth (180°)10.4 mphClear
11:53 AM42.1 °F25.0 °F51 %30.28 in10.0 miSouth (170°)12.7 mphClear
12:53 PM44.6 °F26.6 °F49 %30.20 in10.0 miSouth (180°)13.8 mphClear
1:53 PM48.0 °F26.1 °F42 %30.21 in10.0 miSSW (200°)8.1 mphClear
2:53 PM48.0 °F25.0 °F41 %30.20 in10.0 miSW (220°)9.2 mphClear
3:53 PM44.1 °F26.1 °F49 %30.19 in10.0 miSSE (160°)6.9 mphClear
4:53 PM41.0 °F24.8 °F53 %30.16 in10.0 miSSE (160°)6.9 mphClear
5:53 PM39.0 °F24.1 °F55 %30.18 in10.0 miSSE (160°)8.1 mphClear
6:53 PM37.0 °F24.1 °F59 %30.18 in10.0 miSouth (170°)8.1 mphClear
7:53 PM36.0 °F23.0 °F59 %30.17 in10.0 miSouth (180°)9.2 mphClear
8:53 PM36.0 °F23.0 °F59 %30.17 in10.0 miSouth (180°)11.5 mphClear
9:53 PM36.0 °F21.9 °F57 %30.16 in10.0 miSouth (180°)11.5 mphClear
10:53 PM35.1 °F21.9 °F59 %30.14 in10.0 miSouth (180°)15.0 mphClear
11:53 PM35.1 °F23.0 °F61 %30.12 in10.0 miSouth (180°)13.8 mphClear
Hourly data recorded from KVIH, located miles away from Vienna, Missouri







STORIES FROM OUR PARTNERS